星链-32805 (STARLINK-32805)

导读

STARLINK-32805是美国SpaceX星链星座的一员,于2025年1月21日发射入轨。星链项目旨在构建全球卫星互联网星座,为全球范围提供低延迟宽带网络服务,覆盖偏远地区等网络空白区域。作为组网卫星之一,该卫星承担着增强星座覆盖密度、提升服务容量与稳定性的作用,推动星链全球网络布局完善。

Basic Information
目录编号:
62740
目录名称:
STARLINK-32805
国际标识:
2025-014F
轨道中心:
EARTH
卫星名称:
星链-32805
卫星全名:
星链-32805 (STARLINK-32805)
卫星状态:
在轨 (已飞行509 天)
发射日期:
2025-01-21 UTC
国别 :
美国 (US)
星等 :
--
Orbit Information
数据来源 国际轨道数据 AOE轨道数据
星历时间 2026-06-12T12:15:52+0800
2天前
查看轨道信息
2026-06-12T23:00:00+0800
1天前
查看轨道信息
半长轴 6861.022km 6861.13km
偏心率 0.0001822 0.0001724
轨道倾角 43.003° 43.004°
近地点辐角 283.824° 266.709°
升交点赤经 341.164° 338.640°
平近点角 76.241° 36.114°
近地点 481.634km 481.81km
远地点 484.136km 484.176km
周期 94.263分钟 94.266分钟
每日圈数 15.276351 15.27599
Detailed Information
固有亮度:
5
最大亮度:
2.5
卫星平台:
Starlink V1.0
覆盖范围:
全球
运营商:
太空探索技术公司
运营商所在国:
美国
制造商(研发单位):
太空探索技术公司
制造商所在国:
美国
使用方式:
暂无
Satellite Introduction
Starlink 计划是 SpaceX 推出的全球卫星互联网项目,通过发射低轨道卫星,为全球尤其是偏远地区提供高速、低延迟的互联网服务。自 2019 年起,Starlink 已部署数千颗卫星,旨在缩小全球数字鸿沟,推动互联网普及。该项目还为军事、航空等行业提供通信支持,带来广泛经济效益。
2D Orbit Map
3D Orbit Map
Orbit Altitude Analysis Chart
Orbit Inclination Analysis Chart
Orbit Comprehensive Analysis Chart
View Comprehensive Chart